Location: Amarillo Post Office Jordan Station
(35.1907°N, 101.9342°W)
Time: 13:18:04
(UTC+00:00)

Cosmos 1328 - Pass Details

Date: 24 January 2021
Orbit: 528 x 555 km, 82.5° (Epoch: 04 March)

Event Time Altitude Azimuth Distance (km) Brightness Sun altitude
Rises 13:03:45 0° 344° (NNW) 2,679 7.0 -10.1°
Reaches altitude 10° 13:06:00 10° 336° (NNW) 1,782 6.0 -9.7°
Maximum altitude 13:09:37 37° 268° (W) 831 4.3 -8.9°
Drops below altitude 10° 13:13:13 10° 200° (SSW) 1,765 6.4 -8.2°
Sets 13:15:26 0° 192° (SSW) 2,649 7.4 -7.8°
